Погода в Хенчуне

Тайвань     22°00′13″N   120°44′47″E
темп.,
°C
ветер,
м/с
пор.,
м/с
влажн.,
%
обл.,
%
осадки,
мм/ч
давл.,
гПа
погр.,
м
20 мая, пт
пт2023:00+26ююз6789100 2.1 1010551
02:00+26ююз5687100 6.8 1008357
05:00+25ююз348884 4.6 1008352
08:00+26ю128330 7.6 1008262
11:00+26ю438467 1.6 1008553
14:00+27з448194 1.7 1006535
17:00+27сз6784100 0.0 1005558
20:00+26ссз348583 0.4 1007399
21 мая, сб
сб2123:00+26ссв128497 0.9 1008336
02:00+25зсз1285100 1.6 1007283
05:00+25зсз228576 0.3 1007343
08:00+26сз338196 0.3 1008607
11:00+27вюв017724 0.1 1008538
14:00+27всв127760 1.5 1007635
17:00+25св578299 0.8 1007564
20:00+24св688565 1.0 1008441
22 мая, вс
вс2223:00+24св688494 0.0 1009425
02:00+24св5784100 0.1 1007404
05:00+24св468497 0.1 1007361
08:00+25всв568076 0.1 1008566
11:00+27всв567553 0.1 1008767
14:00+27всв567594 0.1 1007712
17:00+26св567797 0.8 1006650
20:00+25св6885100 1.1 1008441
23 мая, пн
пн2323:00+25св688499 0.1 1009544
02:00+24св688249 0.1 1007448
05:00+24св688441 0.0 1007422
08:00+26св678094 0.0 1009543
11:00+27всв567598 0.0 1009653
14:00+27св457689 0.0 1008566
17:00+27св4576100 0.0 1008600
20:00+25св6883100 0.0 1010466
24 мая, вт
вт2423:00+25всв5885100 0.0 1010369
02:00+24св4685100 0.0 1009285
05:00+24всв4687100 0.4 1009269
08:00+25св4689100 2.7 1010309
11:00+24св3492100 15.2 1011210
14:00+25в3387100 17.2 1010249
17:00+24в3391100 2.9 1009190
20:00+24в2291100 6.2 1010155